QPF
0.01 0.01 0.02 0.03 0.03 0.03 0.03 0.03 0.03 0.03 0.03 0.03 0.02 0.02 0.02 0.03 0.03 0.03 0.03 0.03 0.03 0.03 0.04 0.05 0.06 0.06 0.05 0.05 0.05 0.05 0.06 0.07 0.07 0.07 0.07 0.05 0.05 0.03 0.02 0.02 0.01 0.01 0.01
0.01 0.02 0.02 0.02 0.02 0.02 0.03 0.03 0.03 0.03 0.02 0.02 0.02 0.02 0.02 0.02 0.03 0.03 0.03 0.03 0.03 0.03 0.05 0.05 0.06 0.05 0.05 0.05 0.05 0.05 0.07 0.08 0.07 0.06 0.06 0.06 0.05 0.04 0.02 0.02 0.01 0.01 0.01
0.02 0.02 0.02 0.01 0.02 0.02 0.02 0.02 0.03 0.03 0.03 0.03 0.03 0.03 0.02 0.02 0.02 0.03 0.03 0.03 0.04 0.03 0.04 0.04 0.03 0.03 0.03 0.04 0.03 0.03 0.04 0.05 0.05 0.05 0.06 0.06 0.04 0.03 0.03 0.02 0.01 0.01 0.01
0.01 0.01 0.01 0.02 0.01 0.01 0.02 0.02 0.02 0.03 0.03 0.04 0.04 0.03 0.03 0.03 0.02 0.02 0.02 0.03 0.04 0.03 0.03 0.02 0.02 0.03 0.03 0.03 0.02 0.02 0.03 0.04 0.05 0.06 0.06 0.05 0.03 0.03 0.03 0.03 0.02 0.02 0.01
0.04 0.01 0.01 0.01 0.01 0.01 0.01 0.02 0.02 0.03 0.04 0.04 0.04 0.04 0.04 0.03 0.02 0.02 0.02 0.02 0.03 0.02 0.02 0.02 0.02 0.02 0.02 0.02 0.01 0.02 0.03 0.03 0.04 0.04 0.04 0.05 0.05 0.03 0.02 0.02 0.02 0.01 0.01
0.04 0.03 0.03 0.02 0.02 0.02 0.02 0.02 0.02 0.03 0.04 0.04 0.04 0.04 0.05 0.05 0.03 0.01 0.02 0.02 0.02 0.02 0.01 0.01 0.01 0.01 0.01 0.00 0.01 0.01 0.02 0.03 0.03 0.04 0.04 0.04 0.05 0.04 0.03 0.02 0.02 0.02 0.01
0.03 0.03 0.03 0.03 0.02 0.02 0.02 0.02 0.02 0.03 0.03 0.04 0.04 0.04 0.04 0.04 0.03 0.01 0.01 0.01 0.01 0.01 0.01 0.01 0.01 0.00 0.01 0.01 0.01 0.01 0.01 0.02 0.02 0.03 0.03 0.03 0.04 0.04 0.05 0.04 0.03 0.03 0.03
0.01 0.02 0.02 0.02 0.02 0.02 0.02 0.02 0.03 0.02 0.03 0.03 0.03 0.03 0.03 0.03 0.02 0.01 0.01 0.01 0.01 0.01 0.01 0.01 0.01 0.01 0.01 0.02 0.02 0.02 0.01 0.01 0.02 0.02 0.02 0.04 0.05 0.06 0.05 0.04 0.04 0.04 0.04
0.01 0.02 0.02 0.03 0.03 0.03 0.03 0.03 0.03 0.03 0.03 0.03 0.03 0.03 0.03 0.03 0.03 0.02 0.02 0.01 0.01 0.01 0.01 0.01 0.01 0.01 0.01 0.01 0.02 0.02 0.02 0.02 0.02 0.02 0.02 0.03 0.04 0.03 0.03 0.03 0.03 0.03 0.03
0.02 0.02 0.02 0.03 0.03 0.02 0.03 0.04 0.04 0.04 0.04 0.04 0.04 0.04 0.05 0.05 0.04 0.03 0.03 0.02 0.02 0.02 0.02 0.02 0.01 0.01 0.01 0.01 0.02 0.02 0.02 0.03 0.04 0.03 0.02 0.02 0.02 0.02 0.02 0.02 0.02 0.03 0.03
0.01 0.02 0.02 0.02 0.02 0.03 0.04 0.04 0.04 0.05 0.06 0.05 0.05 0.05 0.06 0.06 0.05 0.04 0.03 0.03 0.03 0.04 0.04 0.04 0.02 0.02 0.01 0.02 0.03 0.03 0.03 0.03 0.03 0.03 0.03 0.03 0.03 0.02 0.02 0.02 0.03 0.03 0.04
0.01 0.01 0.01 0.02 0.03 0.03 0.04 0.03 0.03 0.04 0.04 0.04 0.04 0.05 0.05 0.05 0.04 0.04 0.03 0.03 0.02 0.03 0.03 0.03 0.03 0.03 0.03 0.04 0.04 0.04 0.03 0.02 0.02 0.01 0.01 0.02 0.03 0.04 0.05 0.05 0.05 0.05 0.05
0.01 0.01 0.02 0.02 0.02 0.02 0.02 0.02 0.03 0.04 0.04 0.04 0.04 0.05 0.04 0.04 0.04 0.03 0.02 0.01 0.01 0.02 0.02 0.02 0.02 0.02 0.02 0.03 0.03 0.03 0.02 0.01 0.02 0.02 0.02 0.01 0.02 0.04 0.06 0.07 0.07 0.07 0.07
0.02 0.01 0.01 0.01 0.01 0.02 0.02 0.02 0.03 0.04 0.05 0.05 0.06 0.06 0.06 0.04 0.04 0.03 0.03 0.02 0.01 0.01 0.01 0.01 0.01 0.01 0.01 0.01 0.02 0.02 0.02 0.01 0.02 0.02 0.02 0.02 0.02 0.02 0.03 0.05 0.06 0.08 0.08
0.02 0.02 0.01 0.02 0.02 0.02 0.02 0.03 0.03 0.03 0.03 0.04 0.04 0.03 0.04 0.04 0.04 0.04 0.03 0.02 0.01 0.01 0.02 0.01 0.01 0.02 0.02 0.02 0.02 0.02 0.02 0.02 0.02 0.01 0.01 0.02 0.02 0.02 0.02 0.03 0.04 0.05 0.05
0.02 0.02 0.02 0.02 0.02 0.02 0.01 0.01 0.01 0.02 0.02 0.03 0.03 0.03 0.03 0.03 0.03 0.03 0.02 0.02 0.01 0.01 0.01 0.02 0.02 0.02 0.03 0.03 0.03 0.03 0.03 0.03 0.02 0.02 0.02 0.02 0.02 0.02 0.02 0.02 0.03 0.04 0.04
0.02 0.02 0.02 0.02 0.02 0.02 0.01 0.01 0.01 0.01 0.02 0.04 0.04 0.04 0.03 0.04 0.04 0.03 0.03 0.02 0.02 0.02 0.03 0.03 0.03 0.03 0.04 0.04 0.04 0.04 0.03 0.03 0.03 0.02 0.02 0.02 0.03 0.03 0.03 0.02 0.03 0.04 0.04
0.03 0.03 0.03 0.04 0.05 0.03 0.02 0.02 0.01 0.01 0.02 0.04 0.06 0.06 0.04 0.04 0.04 0.04 0.03 0.03 0.03 0.04 0.03 0.03 0.04 0.04 0.05 0.06 0.06 0.04 0.04 0.04 0.03 0.02 0.02 0.03 0.03 0.03 0.03 0.03 0.04 0.04 0.04
0.04 0.05 0.05 0.06 0.06 0.05 0.04 0.03 0.03 0.02 0.02 0.04 0.05 0.06 0.05 0.04 0.03 0.04 0.04 0.03 0.03 0.03 0.04 0.05 0.06 0.05 0.06 0.06 0.05 0.04 0.03 0.04 0.03 0.02 0.03 0.03 0.03 0.02 0.02 0.03 0.04 0.05 0.05
0.06 0.05 0.05 0.05 0.04 0.04 0.05 0.05 0.05 0.05 0.04 0.04 0.04 0.04 0.05 0.04 0.03 0.04 0.04 0.03 0.03 0.03 0.04 0.06 0.07 0.07 0.05 0.04 0.03 0.02 0.02 0.02 0.02 0.02 0.02 0.02 0.03 0.02 0.02 0.02 0.03 0.04 0.05
0.04 0.04 0.05 0.06 0.06 0.06 0.06 0.05 0.05 0.05 0.05 0.05 0.06 0.06 0.07 0.05 0.04 0.03 0.02 0.02 0.04 0.06 0.07 0.06 0.07 0.07 0.06 0.05 0.04 0.03 0.02 0.02 0.02 0.02 0.02 0.02 0.01 0.02 0.02 0.02 0.02 0.02 0.03
0.05 0.06 0.06 0.06 0.08 0.08 0.07 0.06 0.06 0.05 0.04 0.04 0.04 0.05 0.04 0.05 0.04 0.04 0.03 0.03 0.04 0.07 0.08 0.07 0.06 0.06 0.06 0.06 0.04 0.03 0.02 0.02 0.01 0.01 0.01 0.01 0.01 0.01 0.02 0.02 0.03 0.03 0.03
0.04 0.03 0.04 0.05 0.06 0.06 0.04 0.03 0.04 0.04 0.04 0.04 0.04 0.04 0.03 0.04 0.04 0.04 0.04 0.03 0.04 0.05 0.05 0.05 0.05 0.04 0.04 0.03 0.03 0.03 0.02 0.02 0.02 0.02 0.02 0.02 0.02 0.02 0.02 0.03 0.03 0.03 0.03
0.03 0.02 0.02 0.02 0.03 0.03 0.03 0.04 0.05 0.05 0.05 0.05 0.06 0.06 0.05 0.04 0.04 0.04 0.03 0.03 0.03 0.03 0.03 0.03 0.04 0.03 0.03 0.03 0.03 0.03 0.03 0.03 0.02 0.02 0.02 0.02 0.02 0.02 0.02 0.02 0.03 0.03 0.04
0.02 0.02 0.02 0.02 0.03 0.03 0.04 0.05 0.05 0.05 0.05 0.05 0.05 0.04 0.04 0.04 0.04 0.04 0.03 0.03 0.03 0.03 0.04 0.04 0.03 0.03 0.03 0.03 0.03 0.02 0.02 0.02 0.02 0.02 0.02 0.02 0.01 0.01 0.01 0.02 0.02 0.03 0.04
0.04 0.03 0.03 0.03 0.04 0.05 0.05 0.05 0.04 0.04 0.04 0.04 0.05 0.05 0.04 0.04 0.05 0.05 0.04 0.04 0.04 0.04 0.04 0.04 0.04 0.04 0.04 0.03 0.03 0.03 0.03 0.03 0.02 0.02 0.02 0.01 0.01 0.01 0.02 0.02 0.02 0.02 0.03
MSLP
1012.67 1012.69 1012.72 1012.73 1012.65 1012.47 1012.17 1011.78 1011.32 1010.85 1010.42 1010.05 1009.77 1009.58 1009.44 1009.34 1009.25 1009.13 1008.98 1008.80 1008.61 1008.43 1008.28 1008.18 1008.13 1008.14 1008.20 1008.28 1008.39 1008.50 1008.62 1008.74 1008.87 1009.03 1009.20 1009.40 1009.63 1009.86 1010.10 1010.34 1010.57 1010.81 1011.05
1013.03 1012.94 1012.87 1012.78 1012.63 1012.39 1012.06 1011.65 1011.20 1010.75 1010.32 1009.96 1009.67 1009.46 1009.29 1009.16 1009.03 1008.88 1008.70 1008.49 1008.27 1008.05 1007.85 1007.69 1007.58 1007.52 1007.51 1007.54 1007.60 1007.70 1007.82 1007.97 1008.15 1008.37 1008.61 1008.87 1009.15 1009.42 1009.69 1009.94 1010.18 1010.42 1010.66
1013.38 1013.20 1013.04 1012.85 1012.62 1012.32 1011.95 1011.53 1011.08 1010.63 1010.22 1009.86 1009.56 1009.32 1009.13 1008.96 1008.79 1008.61 1008.40 1008.17 1007.93 1007.68 1007.45 1007.25 1007.09 1006.97 1006.90 1006.87 1006.89 1006.95 1007.06 1007.22 1007.43 1007.68 1007.97 1008.27 1008.59 1008.89 1009.17 1009.44 1009.68 1009.91 1010.15
1013.68 1013.43 1013.19 1012.93 1012.62 1012.27 1011.87 1011.43 1010.97 1010.53 1010.11 1009.74 1009.42 1009.15 1008.91 1008.69 1008.48 1008.26 1008.02 1007.77 1007.51 1007.25 1007.01 1006.78 1006.59 1006.43 1006.31 1006.23 1006.20 1006.23 1006.32 1006.47 1006.69 1006.95 1007.27 1007.60 1007.94 1008.27 1008.57 1008.84 1009.09 1009.31 1009.53
1013.90 1013.62 1013.33 1013.01 1012.66 1012.26 1011.83 1011.37 1010.90 1010.44 1010.00 1009.60 1009.24 1008.92 1008.62 1008.34 1008.06 1007.79 1007.52 1007.24 1006.98 1006.71 1006.47 1006.23 1006.02 1005.83 1005.68 1005.56 1005.49 1005.48 1005.54 1005.68 1005.89 1006.16 1006.49 1006.85 1007.21 1007.56 1007.89 1008.17 1008.42 1008.64 1008.85
1014.04 1013.76 1013.46 1013.12 1012.74 1012.31 1011.85 1011.36 1010.87 1010.38 1009.91 1009.45 1009.03 1008.63 1008.25 1007.89 1007.54 1007.21 1006.89 1006.59 1006.31 1006.05 1005.80 1005.57 1005.35 1005.15 1004.97 1004.82 1004.71 1004.67 1004.70 1004.81 1005.01 1005.28 1005.62 1006.00 1006.40 1006.78 1007.13 1007.44 1007.70 1007.93 1008.13
1014.14 1013.89 1013.60 1013.25 1012.85 1012.40 1011.91 1011.39 1010.86 1010.33 1009.79 1009.27 1008.77 1008.28 1007.80 1007.35 1006.93 1006.53 1006.16 1005.84 1005.54 1005.28 1005.04 1004.81 1004.59 1004.38 1004.17 1004.00 1003.86 1003.78 1003.78 1003.87 1004.05 1004.33 1004.68 1005.09 1005.51 1005.93 1006.32 1006.67 1006.96 1007.21 1007.42
1014.21 1014.00 1013.73 1013.39 1012.98 1012.50 1011.98 1011.42 1010.84 1010.24 1009.64 1009.04 1008.44 1007.85 1007.29 1006.75 1006.24 1005.79 1005.38 1005.03 1004.73 1004.47 1004.23 1004.00 1003.78 1003.56 1003.34 1003.13 1002.96 1002.85 1002.82 1002.89 1003.07 1003.35 1003.71 1004.15 1004.61 1005.07 1005.51 1005.90 1006.23 1006.51 1006.74
1014.25 1014.08 1013.82 1013.48 1013.05 1012.55 1011.99 1011.38 1010.74 1010.08 1009.40 1008.71 1008.03 1007.36 1006.71 1006.10 1005.54 1005.04 1004.60 1004.24 1003.94 1003.68 1003.45 1003.22 1003.00 1002.76 1002.52 1002.29 1002.09 1001.95 1001.90 1001.95 1002.12 1002.40 1002.79 1003.25 1003.75 1004.26 1004.74 1005.18 1005.56 1005.87 1006.14
1014.24 1014.07 1013.81 1013.45 1013.00 1012.47 1011.86 1011.21 1010.51 1009.78 1009.04 1008.28 1007.53 1006.79 1006.09 1005.43 1004.84 1004.32 1003.88 1003.52 1003.22 1002.97 1002.74 1002.52 1002.29 1002.04 1001.78 1001.53 1001.30 1001.14 1001.07 1001.11 1001.28 1001.57 1001.97 1002.46 1003.00 1003.54 1004.07 1004.56 1004.98 1005.33 1005.63
1014.11 1013.93 1013.64 1013.26 1012.77 1012.21 1011.57 1010.87 1010.12 1009.35 1008.55 1007.75 1006.95 1006.18 1005.45 1004.78 1004.18 1003.67 1003.24 1002.89 1002.61 1002.37 1002.15 1001.93 1001.69 1001.42 1001.15 1000.88 1000.64 1000.47 1000.39 1000.44 1000.61 1000.92 1001.34 1001.85 1002.41 1002.99 1003.55 1004.07 1004.53 1004.91 1005.24
1013.83 1013.60 1013.27 1012.86 1012.34 1011.75 1011.08 1010.36 1009.59 1008.78 1007.97 1007.14 1006.33 1005.56 1004.83 1004.17 1003.59 1003.10 1002.69 1002.37 1002.10 1001.86 1001.65 1001.42 1001.17 1000.90 1000.62 1000.34 1000.11 999.94 999.88 999.94 1000.14 1000.46 1000.91 1001.44 1002.03 1002.63 1003.21 1003.74 1004.22 1004.63 1004.97
1013.37 1013.08 1012.71 1012.27 1011.73 1011.13 1010.45 1009.73 1008.96 1008.16 1007.34 1006.53 1005.73 1004.98 1004.27 1003.64 1003.09 1002.62 1002.23 1001.92 1001.66 1001.42 1001.19 1000.96 1000.70 1000.42 1000.14 999.87 999.66 999.52 999.50 999.59 999.83 1000.19 1000.66 1001.22 1001.82 1002.43 1003.03 1003.57 1004.05 1004.47 1004.82
1012.75 1012.41 1012.01 1011.54 1011.01 1010.42 1009.77 1009.06 1008.32 1007.55 1006.77 1005.99 1005.23 1004.50 1003.83 1003.22 1002.69 1002.24 1001.86 1001.54 1001.26 1001.00 1000.75 1000.49 1000.22 999.94 999.67 999.43 999.25 999.16 999.19 999.35 999.64 1000.05 1000.56 1001.14 1001.76 1002.38 1002.97 1003.51 1003.99 1004.40 1004.76
1012.05 1011.67 1011.26 1010.80 1010.29 1009.73 1009.12 1008.47 1007.78 1007.07 1006.34 1005.60 1004.88 1004.19 1003.54 1002.95 1002.43 1001.97 1001.57 1001.21 1000.90 1000.59 1000.30 1000.00 999.71 999.42 999.17 998.96 998.84 998.81 998.91 999.14 999.50 999.97 1000.52 1001.14 1001.77 1002.40 1002.99 1003.53 1004.00 1004.41 1004.75
1011.37 1010.98 1010.58 1010.14 1009.68 1009.18 1008.63 1008.05 1007.43 1006.78 1006.10 1005.42 1004.74 1004.07 1003.44 1002.86 1002.31 1001.82 1001.38 1000.96 1000.58 1000.21 999.86 999.52 999.19 998.90 998.65 998.49 998.42 998.47 998.64 998.95 999.37 999.90 1000.50 1001.15 1001.80 1002.44 1003.03 1003.56 1004.02 1004.42 1004.76
1010.83 1010.44 1010.06 1009.66 1009.25 1008.81 1008.34 1007.83 1007.27 1006.69 1006.07 1005.44 1004.79 1004.15 1003.53 1002.93 1002.36 1001.82 1001.31 1000.82 1000.36 999.92 999.50 999.10 998.74 998.44 998.20 998.07 998.05 998.16 998.40 998.78 999.26 999.84 1000.48 1001.15 1001.81 1002.45 1003.04 1003.56 1004.02 1004.41 1004.75
1010.48 1010.10 1009.74 1009.39 1009.02 1008.64 1008.23 1007.78 1007.29 1006.77 1006.20 1005.61 1005.00 1004.38 1003.75 1003.14 1002.54 1001.95 1001.38 1000.83 1000.30 999.79 999.31 998.86 998.47 998.16 997.93 997.82 997.84 997.99 998.28 998.70 999.22 999.82 1000.47 1001.14 1001.80 1002.43 1003.01 1003.53 1003.98 1004.36 1004.69
1010.34 1009.97 1009.63 1009.30 1008.96 1008.62 1008.25 1007.85 1007.40 1006.92 1006.40 1005.85 1005.27 1004.67 1004.06 1003.44 1002.83 1002.22 1001.62 1001.03 1000.45 999.90 999.38 998.91 998.50 998.18 997.96 997.87 997.91 998.08 998.38 998.79 999.31 999.90 1000.53 1001.18 1001.81 1002.42 1002.97 1003.46 1003.90 1004.27 1004.59
1010.37 1009.99 1009.64 1009.31 1008.98 1008.65 1008.29 1007.91 1007.49 1007.04 1006.55 1006.04 1005.49 1004.93 1004.35 1003.76 1003.17 1002.58 1001.98 1001.40 1000.83 1000.28 999.77 999.30 998.91 998.60 998.39 998.30 998.34 998.50 998.78 999.16 999.64 1000.17 1000.74 1001.33 1001.90 1002.44 1002.95 1003.40 1003.81 1004.16 1004.46
1010.46 1010.06 1009.69 1009.33 1008.98 1008.62 1008.26 1007.87 1007.46 1007.02 1006.56 1006.08 1005.59 1005.07 1004.55 1004.03 1003.50 1002.97 1002.44 1001.92 1001.41 1000.92 1000.46 1000.05 999.69 999.42 999.23 999.15 999.17 999.30 999.53 999.85 1000.24 1000.68 1001.15 1001.63 1002.11 1002.57 1003.00 1003.39 1003.75 1004.06 1004.33
1010.53 1010.09 1009.67 1009.27 1008.87 1008.48 1008.08 1007.67 1007.25 1006.82 1006.38 1005.93 1005.49 1005.05 1004.61 1004.18 1003.75 1003.33 1002.92 1002.51 1002.11 1001.74 1001.38 1001.06 1000.78 1000.57 1000.42 1000.35 1000.36 1000.45 1000.61 1000.84 1001.12 1001.43 1001.77 1002.13 1002.48 1002.82 1003.15 1003.46 1003.74 1004.00 1004.22
1010.49 1010.01 1009.54 1009.09 1008.63 1008.19 1007.74 1007.30 1006.86 1006.43 1006.01 1005.60 1005.21 1004.85 1004.51 1004.19 1003.89 1003.61 1003.34 1003.08 1002.84 1002.60 1002.39 1002.20 1002.03 1001.90 1001.81 1001.77 1001.78 1001.83 1001.92 1002.05 1002.21 1002.39 1002.58 1002.78 1002.99 1003.21 1003.42 1003.62 1003.82 1004.01 1004.17
1010.32 1009.81 1009.30 1008.80 1008.30 1007.80 1007.32 1006.84 1006.39 1005.95 1005.54 1005.16 1004.83 1004.54 1004.29 1004.08 1003.90 1003.76 1003.64 1003.54 1003.46 1003.39 1003.33 1003.28 1003.24 1003.21 1003.20 1003.20 1003.21 1003.24 1003.28 1003.32 1003.37 1003.43 1003.48 1003.54 1003.61 1003.69 1003.78 1003.87 1003.98 1004.08 1004.18
1010.06 1009.54 1009.01 1008.48 1007.96 1007.43 1006.92 1006.42 1005.95 1005.51 1005.11 1004.76 1004.46 1004.22 1004.04 1003.91 1003.84 1003.81 1003.82 1003.86 1003.91 1003.98 1004.07 1004.15 1004.23 1004.31 1004.38 1004.44 1004.48 1004.51 1004.52 1004.50 1004.47 1004.42 1004.37 1004.31 1004.25 1004.21 1004.18 1004.18 1004.19 1004.22 1004.26
1009.80 1009.29 1008.77 1008.25 1007.72 1007.20 1006.68 1006.18 1005.70 1005.26 1004.86 1004.52 1004.24 1004.03 1003.88 1003.80 1003.78 1003.82 1003.90 1004.02 1004.17 1004.35 1004.53 1004.72 1004.91 1005.08 1005.23 1005.35 1005.43 1005.48 1005.49 1005.45 1005.38 1005.27 1005.14 1004.99 1004.84 1004.70 1004.58 1004.49 1004.42 1004.39 1004.37
Thickness
5800 5797 5794 5791 5789 5786 5784 5783 5781 5779 5778 5775 5773 5771 5769 5766 5765 5762 5760 5759 5756 5754 5753 5750 5748 5747 5745 5743 5742 5739 5735 5730 5721 5720 5719 5716 5713 5709 5705 5702 5699 5696 5693
5801 5798 5795 5792 5789 5786 5784 5783 5781 5779 5777 5776 5773 5771 5769 5766 5764 5761 5758 5756 5754 5751 5750 5748 5746 5745 5741 5739 5737 5735 5732 5729 5722 5715 5713 5710 5707 5705 5702 5698 5696 5693 5690
5803 5798 5794 5791 5789 5786 5784 5783 5781 5778 5776 5775 5772 5769 5767 5765 5763 5760 5757 5755 5753 5751 5749 5745 5743 5741 5737 5735 5733 5730 5728 5726 5721 5715 5710 5707 5704 5701 5697 5695 5693 5690 5688
5802 5797 5792 5789 5787 5785 5784 5782 5779 5777 5774 5772 5770 5768 5766 5764 5761 5759 5756 5753 5751 5749 5747 5744 5740 5737 5734 5731 5729 5726 5724 5720 5716 5711 5706 5702 5699 5696 5693 5689 5686 5685 5684
5800 5795 5791 5789 5787 5784 5782 5779 5777 5774 5772 5770 5767 5764 5763 5760 5758 5755 5753 5750 5747 5745 5743 5741 5738 5735 5731 5728 5726 5722 5719 5715 5711 5706 5701 5697 5693 5689 5687 5686 5682 5680 5679
5796 5793 5790 5786 5783 5780 5778 5776 5773 5771 5769 5767 5764 5761 5759 5757 5754 5751 5748 5746 5743 5740 5738 5736 5734 5730 5726 5723 5721 5718 5714 5710 5706 5702 5698 5693 5690 5688 5685 5682 5678 5674 5670
5792 5789 5786 5782 5778 5776 5774 5772 5769 5767 5765 5762 5760 5757 5754 5752 5750 5747 5744 5742 5740 5737 5734 5732 5730 5728 5723 5719 5716 5713 5710 5706 5703 5698 5694 5691 5688 5686 5681 5677 5674 5670 5668
5787 5784 5782 5778 5774 5771 5768 5766 5765 5763 5760 5757 5755 5753 5751 5748 5745 5742 5739 5737 5736 5734 5731 5728 5725 5722 5719 5715 5712 5709 5705 5702 5699 5695 5692 5689 5686 5683 5679 5675 5671 5668 5666
5780 5778 5777 5773 5769 5765 5762 5760 5759 5757 5755 5753 5751 5749 5746 5743 5740 5737 5733 5732 5730 5729 5727 5725 5721 5717 5714 5710 5707 5703 5700 5697 5694 5691 5688 5684 5680 5677 5673 5668 5664 5659 5657
5775 5773 5772 5769 5764 5760 5758 5756 5754 5752 5749 5747 5745 5744 5742 5739 5735 5731 5727 5726 5724 5723 5721 5719 5716 5712 5709 5705 5700 5697 5693 5691 5689 5686 5681 5678 5675 5671 5667 5663 5659 5654 5651
5769 5767 5765 5762 5759 5755 5752 5750 5747 5745 5742 5740 5738 5738 5737 5734 5729 5726 5722 5720 5719 5717 5715 5712 5710 5706 5702 5698 5694 5691 5689 5686 5683 5680 5677 5673 5670 5666 5663 5660 5656 5652 5647
5759 5757 5755 5753 5751 5750 5746 5743 5740 5737 5735 5733 5730 5729 5729 5728 5725 5720 5717 5714 5712 5710 5708 5707 5704 5700 5695 5692 5688 5686 5683 5679 5676 5673 5670 5667 5664 5661 5659 5656 5652 5648 5645
5748 5746 5745 5743 5741 5740 5737 5734 5732 5730 5728 5726 5724 5722 5721 5720 5718 5714 5710 5707 5705 5702 5702 5699 5696 5692 5688 5685 5682 5679 5676 5673 5670 5667 5665 5663 5661 5658 5655 5650 5646 5642 5639
5737 5735 5734 5732 5730 5729 5728 5726 5724 5722 5720 5718 5716 5715 5712 5711 5710 5706 5703 5699 5695 5692 5691 5689 5686 5683 5680 5677 5674 5671 5669 5667 5665 5662 5660 5658 5655 5651 5647 5643 5638 5634 5630
5727 5726 5725 5723 5721 5718 5717 5715 5714 5714 5712 5709 5709 5708 5704 5702 5700 5697 5694 5692 5689 5686 5681 5679 5677 5674 5672 5670 5668 5666 5664 5661 5657 5655 5653 5650 5646 5643 5639 5636 5632 5628 5624
5717 5716 5716 5714 5712 5710 5707 5705 5704 5704 5703 5701 5700 5698 5697 5694 5691 5688 5684 5682 5678 5675 5671 5671 5670 5669 5666 5664 5661 5659 5657 5655 5652 5649 5646 5643 5639 5635 5632 5629 5625 5622 5618
5709 5708 5707 5705 5703 5701 5699 5697 5695 5694 5693 5691 5689 5687 5685 5683 5680 5677 5674 5671 5668 5664 5663 5665 5664 5663 5661 5658 5656 5654 5652 5649 5646 5643 5640 5636 5632 5629 5625 5621 5618 5615 5612
5701 5700 5698 5696 5694 5692 5690 5689 5688 5686 5683 5682 5679 5677 5674 5672 5669 5666 5662 5659 5659 5658 5659 5659 5657 5656 5654 5652 5650 5648 5646 5643 5639 5636 5633 5629 5626 5622 5618 5615 5612 5608 5605
5690 5689 5688 5686 5684 5683 5681 5679 5678 5676 5675 5674 5672 5668 5664 5661 5658 5655 5652 5651 5652 5652 5652 5652 5650 5649 5647 5645 5643 5641 5639 5636 5633 5630 5626 5622 5619 5615 5612 5609 5606 5602 5599
5680 5679 5677 5676 5674 5673 5671 5669 5668 5667 5666 5665 5663 5661 5656 5652 5649 5646 5644 5644 5645 5645 5644 5643 5642 5641 5638 5636 5634 5632 5631 5628 5625 5622 5619 5616 5613 5609 5605 5603 5600 5596 5593
5671 5671 5668 5666 5665 5664 5662 5660 5659 5658 5657 5655 5655 5654 5649 5647 5645 5642 5639 5638 5637 5637 5636 5636 5635 5633 5631 5629 5626 5624 5622 5620 5617 5614 5611 5608 5605 5602 5599 5596 5593 5591 5588
5662 5662 5660 5658 5657 5656 5654 5653 5651 5650 5649 5648 5647 5646 5641 5640 5639 5637 5635 5634 5632 5631 5630 5628 5627 5625 5622 5620 5618 5616 5613 5611 5608 5605 5602 5599 5596 5594 5592 5589 5586 5584 5581
5653 5653 5651 5650 5647 5645 5645 5645 5643 5643 5642 5641 5640 5637 5634 5632 5631 5630 5629 5628 5627 5624 5622 5620 5618 5616 5615 5612 5610 5608 5605 5602 5599 5596 5593 5590 5588 5585 5583 5580 5578 5576 5574
5645 5644 5643 5641 5640 5638 5637 5636 5635 5635 5634 5633 5631 5629 5626 5624 5623 5623 5622 5620 5619 5617 5615 5612 5610 5608 5607 5604 5602 5599 5596 5593 5591 5588 5584 5581 5579 5577 5575 5573 5572 5569 5567
5636 5635 5635 5633 5632 5630 5629 5628 5627 5626 5625 5624 5622 5621 5619 5618 5616 5615 5614 5612 5610 5608 5607 5605 5602 5600 5598 5596 5593 5590 5587 5583 5580 5577 5574 5573 5571 5570 5568 5566 5564 5562 5560
5625 5625 5625 5624 5622 5619 5618 5617 5617 5616 5614 5613 5612 5611 5610 5609 5608 5606 5604 5603 5601 5599 5598 5596 5594 5592 5589 5587 5583 5580 5576 5573 5570 5567 5564 5563 5563 5561 5559 5557 5556 5555 5553